Location: Augustenthal
(51.7167°N, 10.2833°E)
Time: 10:19:34
(UTC+00:00)

Cosmos 1455 Rocket - Pass Details

Date: 25 September 2021
Orbit: 606 x 628 km, 82.5° (Epoch: 24 October)

Event Time Altitude Azimuth Distance (km) Brightness Sun altitude
Exits shadow 20:36:48 13° 22° (NNE) 1,779 5.6 -30.1°
Drops below altitude 10° 20:37:20 10° 20° (NNE) 1,983 5.9 -30.2°
Sets 20:39:37 0° 15° (NNE) 2,897 6.9 -30.4°
